SCP
-0 -0 0 0 0 0 0 0 -0 0 -0 0 0 0 -0 -0 0 -0 0 0 0 -0 -0 -0 -0 -0 -0 -0 -0 -0 0 0 0 0 0 0 0 -0 0 0 0 -0 -0
0 0 -0 0 0 0 0 0 0 0 0 0 0 -0 -0 -0 -0 -0 -0 0 0 -0 -0 -0 -0 -0 -0 -0 0 0 0 0 0 0 0 0 0 -0 0 -0 -0 -0 -0
0 0 0 -0 -0 -0 -0 0 0 0 0 0 -0 -0 -0 -0 -0 -0 -0 -0 -0 -0 0 0 -0 -0 0 -0 -0 -0 0 0 0 0 0 0 0 -0 -0 -0 -0 -0 -0
0 0 -0 -0 -0 -0 0 0 0 -0 0 0 -0 -0 0 0 -0 -0 -0 -0 -0 0 0 0 0 0 0 0 0 -0 0 0 0 0 0 0 -0 -0 -0 -0 0 -0 -0
0 0 -0 -0 -0 -0 -0 -0 -0 -0 -0 -0 -0 -0 -0 0 -0 0 0 0 0 0 0 0 0 0 0 0 0 0 0 -0 -0 -0 0 0 0 -0 -0 -0 0 0 0
0 0 0 -0 -0 -0 -0 -0 -0 -0 0 -0 -0 -0 -0 -0 0 0 0 0 0 -0 -0 0 0 0 0 0 0 0 -0 -0 -0 -0 -0 -0 0 -0 -0 -0 -0 -0 -0
0 0 0 0 0 0 0 -0 0 0 0 -0 -0 0 -0 0 0 0 0 0 0 0 0 -0 0 0 0 -0 0 0 0 0 -0 -0 0 -0 -0 -0 -0 -0 -0 -0 -0
0 0 0 0 0 0 0 0 0 0 -0 -0 -0 0 0 0 0 0 0 0 0 0 0 0 0 0 0 0 0 -0 -0 -0 0 -0 -0 -0 -0 -0 -0 -0 -0 -0 -0
-0 0 0 0 0 0 0 -0 -0 -0 -0 0 0 0 0 0 0 0 0 0 0 0 -0 -0 -0 0 0 0 -0 -0 -0 -0 -0 0 -0 -0 -0 -0 -0 -0 -0 -0 -0
-0 0 0 0 0 -0 -0 -0 -0 -0 0 0 0 0 0 0 -0 -0 -0 0 0 0 0 0 -0 -0 -0 -0 -0 -0 -0 0 -0 -0 -0 -0 -0 -0 -0 -0 -0 -0 -0
0 0 0 0 0 -0 -0 -0 -0 0 0 0 0 0 0 0 0 0 0 0 0 0 0 0 0 0 -0 -0 -0 -0 0 0 -0 -0 -0 -0 -0 -0 -0 -0 -0 -0 -0
0 0 0 0 -0 -0 -0 0 -0 0 0 0 0 0 0 0 0 0 0 0 0 0 0 0 0 -0 -0 0 0 -0 0 0 0 0 0 -0 -0 -0 -0 -0 -0 -0 -0
-0 -0 0 -0 -0 -0 0 -0 -0 0 0 -0 0 0 0 -0 -0 0 -0 0 0 -0 0 0 0 0 0 0 0 0 -0 0 0 0 0 0 -0 -0 -0 -0 -0 -0 -0
0 -0 0 0 -0 -0 0 -0 -0 0 0 0 0 -0 -0 -0 -0 -0 -0 0 -0 0 0 -0 0 0 -0 -0 -0 -0 0 0 0 0 -0 -0 -0 -0 -0 -0 -0 -0 -0
-0 0 0 0 0 -0 -0 -0 -0 -0 0 0 -0 -0 -0 -0 -0 -0 -0 -0 -0 -0 0 0 0 -0 -0 -0 -0 -0 -0 -0 0 0 0 -0 0 -0 -0 -0 -0 -0 -0
0 -0 -0 0 0 -0 -0 0 -0 0 -0 -0 -0 -0 -0 -0 0 -0 0 -0 0 -0 0 0 -0 -0 -0 -0 -0 0 0 0 0 -0 0 0 0 -0 -0 -0 -0 -0 -0
0 0 -0 -0 -0 -0 -0 -0 -0 0 -0 -0 -0 -0 -0 -0 -0 0 0 -0 0 0 -0 0 -0 -0 0 0 0 0 0 0 0 0 0 -0 0 -0 -0 -0 -0 0 0
-0 0 0 -0 -0 -0 -0 0 0 0 -0 -0 -0 -0 -0 -0 -0 -0 0 -0 -0 0 0 0 0 0 0 0 0 0 0 0 0 0 0 0 0 0 -0 -0 -0 -0 -0
-0 -0 -0 -0 -0 -1 -0 -0 0 0 0 -0 0 0 -0 -0 -0 -0 0 0 0 0 0 0 0 0 0 0 0 0 0 0 0 0 0 0 0 0 0 -0 -0 -0 -0
-0 -0 -0 -0 -0 -1 -0 -0 0 0 -0 0 0 0 -0 -0 0 0 0 0 0 0 0 0 0 0 0 0 0 -0 0 0 0 -0 0 0 0 0 0 0 0 0 0
-0 -0 -0 -0 -0 -0 -0 -0 -0 0 -0 -0 0 -0 -0 0 0 0 0 0 0 0 0 0 0 0 0 0 0 0 0 0 -0 -0 0 0 0 0 0 0 0 0 0
-0 -1 -1 -0 -0 0 0 0 -0 -0 -0 -0 -0 0 0 0 0 0 0 0 0 0 0 1 0 0 0 0 0 -0 0 0 0 0 0 0 0 0 0 0 0 0 0
-1 -1 -1 -1 -0 -0 -0 0 0 0 0 0 0 0 0 0 0 0 0 0 0 0 1 0 0 0 0 0 0 0 0 0 0 0 0 0 0 0 0 0 0 0 0
-0 -1 -1 -1 -0 -0 -0 0 -0 0 -0 -0 0 0 1 1 0 0 0 0 0 1 0 0 0 0 0 0 0 0 0 0 0 0 0 0 0 0 0 0 0 0 0
-0 -1 -1 -1 -1 -0 -0 0 0 0 -0 -0 0 1 0 0 0 0 0 0 0 0 0 0 0 0 0 0 0 0 0 0 0 0 0 0 -0 0 0 0 0 0 0
-0 -1 -1 -2 -1 -1 -0 -0 -0 0 -0 -0 -0 0 0 0 0 0 0 1 1 1 1 0 1 0 0 0 0 0 0 0 0 0 0 0 0 0 0 0 0 0 0
Wind_Speed_500mb
42 47 52 52 52 54 50 52 53 54 51 45 41 39 35 35 30 30 30 27 27 27 26 24 25 26 28 24 23 21 22 29 25 27 28 24 19 17 23 29 25 8 13
40 48 50 52 52 51 48 51 53 51 47 42 37 33 31 30 29 28 26 27 28 27 25 24 25 25 26 24 22 21 23 32 26 26 27 28 23 20 27 24 28 8 15
44 53 53 51 55 49 48 49 50 48 42 39 34 30 29 28 26 24 24 25 25 24 24 24 24 23 22 22 22 19 22 31 27 27 20 20 21 18 20 21 15 18 18
44 45 49 51 49 47 46 46 44 43 37 34 30 27 26 24 21 22 22 23 22 22 24 23 21 20 19 19 20 20 18 25 29 26 19 22 9 17 21 18 19 19 20
44 41 50 47 44 40 41 42 39 37 34 30 27 23 20 19 18 20 19 19 19 21 22 21 20 19 17 17 16 15 20 23 30 29 30 21 4 12 21 20 21 23 22
41 42 46 42 38 38 39 37 35 34 32 29 23 20 17 16 16 16 16 16 17 19 19 19 19 17 17 15 16 15 17 24 25 28 19 11 4 10 20 23 20 19 18
40 40 40 38 38 38 37 36 35 34 31 25 20 19 16 14 15 14 14 15 16 16 17 19 19 17 17 16 17 16 17 18 24 21 18 8 7 14 17 20 19 17 19
40 34 38 38 37 35 35 35 34 31 26 21 20 16 13 14 14 13 13 13 15 15 15 18 19 19 19 19 20 20 15 18 12 14 13 11 9 13 18 17 19 17 16
42 33 39 40 39 37 37 34 30 27 24 21 16 14 12 14 14 20 13 14 14 15 15 15 16 20 22 21 18 19 21 19 7 9 15 11 12 11 16 18 16 15 15
42 30 30 36 39 39 36 30 27 25 23 17 14 12 12 14 13 19 18 21 13 14 16 14 13 14 24 29 27 20 17 11 8 4 18 14 8 8 12 15 16 15 13
35 33 32 27 26 24 30 26 25 23 18 14 13 11 11 13 12 13 18 18 17 18 22 20 18 18 12 15 21 17 19 8 9 11 7 19 10 9 9 10 13 14 13
38 40 34 33 33 25 24 21 20 17 14 11 7 5 6 10 3 15 14 11 21 18 12 19 16 11 12 11 23 10 20 17 4 21 9 9 10 7 7 7 8 11 13
43 47 25 46 23 31 36 11 9 5 5 4 6 8 4 7 6 21 9 9 14 12 13 4 21 9 11 9 17 22 19 21 29 19 16 11 18 6 5 4 5 9 12
44 47 36 48 30 32 35 12 17 18 7 14 18 6 16 5 2 4 13 14 7 11 14 14 4 15 20 22 22 18 20 11 23 14 11 24 15 6 2 1 8 8 10
36 36 54 43 36 41 28 18 26 22 17 14 17 16 6 9 6 20 13 8 14 7 19 14 8 17 15 18 21 22 15 14 8 19 11 17 16 9 5 9 7 10 11
43 39 42 41 40 50 43 31 30 28 13 24 13 22 18 12 11 10 10 7 21 9 15 21 18 18 13 11 16 19 26 11 12 17 16 20 17 12 11 9 12 10 13
47 45 43 38 38 39 47 35 38 20 23 15 17 18 20 21 19 22 16 9 11 22 16 23 7 13 13 27 17 12 23 25 6 13 23 19 20 20 19 13 11 11 11
46 49 44 36 39 32 35 33 31 22 25 20 17 31 30 25 25 27 16 10 10 19 22 8 12 7 18 20 18 16 14 17 14 16 8 6 12 15 14 14 8 12 11
49 51 50 43 43 44 33 33 26 30 27 24 37 22 19 23 18 19 13 8 14 13 20 9 12 12 21 16 10 18 6 12 8 9 6 3 6 4 11 10 9 15 9
51 52 50 49 44 47 36 31 31 28 31 32 22 27 25 25 22 20 14 15 9 9 19 18 11 14 12 17 15 14 8 11 9 3 7 7 3 8 9 7 6 17 9
53 56 56 54 52 43 45 38 38 39 32 32 31 31 33 34 22 24 23 14 18 9 15 5 12 12 5 14 7 21 17 9 11 7 11 1 14 2 16 16 8 5 9
60 60 60 60 57 60 47 44 34 22 30 26 15 26 23 16 15 19 10 10 8 8 8 11 17 6 4 8 15 6 9 17 7 15 9 3 4 10 9 3 16 9 5
66 65 66 63 64 60 52 43 42 28 36 20 31 15 17 26 18 21 22 21 17 9 15 5 6 10 2 7 18 8 13 6 12 11 8 11 3 11 2 13 12 1 6
69 69 67 62 63 62 57 49 42 49 32 26 24 26 28 25 13 18 18 21 14 17 8 7 10 3 4 7 11 8 10 9 4 10 17 8 5 6 1 2 15 15 9
69 73 73 66 58 64 59 60 48 41 34 33 27 35 28 24 21 18 22 21 21 24 18 21 21 8 7 8 2 2 5 5 8 3 6 5 9 11 2 4 9 14 15
76 75 78 76 69 61 62 65 55 47 46 36 32 32 33 33 25 35 31 30 32 32 26 18 12 7 18 17 15 9 2 6 2 7 13 13 9 11 11 10 13 5 15
Wind_Direction_500mb
126 126 130 135 134 136 134 132 130 130 129 120 113 106 100 96 92 91 84 87 85 78 73 67 63 60 60 64 72 78 78 69 66 76 71 77 70 88 110 96 94 91 104
131 133 134 135 135 137 134 133 130 131 129 124 116 109 101 94 95 87 87 86 80 74 67 61 60 57 58 61 70 73 77 77 70 74 68 62 56 91 119 118 123 123 110
132 133 138 138 138 137 136 133 132 131 132 125 121 112 102 95 91 87 83 78 74 65 59 55 57 54 54 59 64 70 80 95 78 62 69 69 50 83 122 110 110 109 103
126 135 140 137 139 137 137 134 136 135 132 125 122 117 102 90 87 81 75 70 67 56 49 48 53 53 52 50 60 62 80 115 98 74 55 126 4 96 107 100 104 106 106
132 143 141 140 142 142 140 137 140 137 134 130 129 115 102 93 87 79 74 68 61 47 40 39 43 55 53 53 58 77 90 120 109 106 99 127 351 105 113 114 112 119 109
138 151 145 142 142 142 140 144 146 141 139 136 123 116 113 99 88 79 67 62 50 34 37 37 36 44 56 52 64 76 92 104 136 112 106 150 48 105 129 123 121 122 118
140 153 148 146 143 141 140 142 144 146 144 136 128 127 112 97 84 69 51 49 33 31 36 38 44 44 53 67 65 86 90 96 105 122 135 111 90 124 125 131 135 131 130
136 149 154 150 147 144 146 149 147 145 145 142 140 134 118 93 72 46 40 37 19 20 36 50 51 60 59 59 65 66 80 84 61 137 174 64 79 124 125 141 140 140 140
142 146 151 153 154 155 151 146 145 150 150 149 150 141 114 85 60 43 38 24 24 35 28 44 53 70 63 49 48 59 66 88 30 270 125 72 58 115 134 135 147 144 142
138 148 150 152 157 156 152 146 153 155 156 158 157 137 102 84 49 27 31 12 18 26 35 43 52 77 76 64 63 53 50 102 35 85 129 46 49 102 128 144 146 155 151
140 152 153 149 159 154 163 164 164 170 175 171 156 125 103 49 32 3 1 355 20 44 47 48 72 74 44 35 34 50 72 20 15 54 91 29 32 73 125 139 162 168 171
160 159 161 162 155 175 169 168 179 173 170 167 112 123 117 349 55 324 344 348 23 355 342 38 25 18 33 349 323 338 28 347 354 257 203 8 14 55 105 127 159 183 189
170 166 168 165 154 152 190 198 131 82 153 63 191 261 354 280 232 276 235 267 25 338 339 341 339 8 342 13 354 8 21 349 348 356 137 57 17 354 70 170 175 185 198
168 175 178 169 175 176 185 186 170 208 201 216 246 260 207 245 165 269 298 342 9 310 358 314 291 355 343 339 346 332 336 343 343 320 5 341 312 4 4 231 222 206 206
169 182 171 181 187 181 179 188 201 204 187 209 242 285 304 271 263 277 271 277 292 288 322 336 353 324 333 326 340 333 325 306 25 291 348 349 354 343 297 321 273 229 217
180 180 186 194 207 195 189 188 210 184 207 203 221 261 272 231 250 211 263 273 293 342 319 320 306 318 333 335 340 339 339 335 307 342 324 326 315 308 303 297 283 276 245
186 187 195 195 215 212 200 207 199 199 218 209 228 253 268 273 252 269 260 246 329 282 297 316 360 1 347 342 328 327 342 327 340 292 287 261 299 306 290 290 298 281 263
190 193 193 195 207 216 204 214 215 198 212 227 227 225 242 250 250 269 269 294 280 294 306 306 328 318 342 298 294 294 287 288 289 289 319 264 245 297 273 290 309 319 271
194 196 196 199 204 217 220 208 215 209 225 232 237 240 270 283 269 264 282 282 271 290 300 278 289 332 290 295 314 330 247 321 317 352 322 304 117 11 289 273 320 331 294
197 201 203 201 200 218 221 213 211 213 225 221 232 269 246 247 242 270 251 269 295 270 269 273 255 306 7 322 284 276 291 261 238 129 19 37 243 175 307 93 298 286 261
200 202 207 203 203 204 202 216 213 213 227 237 235 236 243 255 246 253 248 249 261 263 289 19 284 293 282 287 316 327 218 275 135 100 139 258 74 252 277 235 276 302 228
201 205 207 208 207 210 210 213 216 221 230 247 271 229 245 252 227 270 229 251 266 258 294 227 311 50 30 300 335 246 258 191 160 178 218 249 226 67 315 282 272 274 282
201 205 209 211 207 213 206 211 211 219 216 234 230 223 235 262 264 218 239 210 224 186 225 254 323 343 284 338 350 358 7 46 194 215 151 195 288 192 5 327 0 6 168
203 205 212 217 212 215 197 203 211 217 207 232 218 243 236 224 203 227 218 213 196 166 229 286 284 240 116 82 336 359 359 13 344 126 186 311 50 123 185 184 338 8 18
205 203 209 216 220 216 202 199 205 210 212 214 225 220 209 226 228 213 189 205 204 189 220 245 258 222 149 174 47 234 331 27 356 7 350 224 200 228 241 109 237 309 325
205 204 203 213 218 221 214 206 202 213 212 214 214 229 234 240 224 193 220 195 211 194 226 238 231 209 196 205 195 181 236 297 351 309 313 335 358 281 227 266 268 247 260
Wind_Speed_850mb
42 47 52 52 52 54 50 52 53 54 51 45 41 39 35 35 30 30 30 27 27 27 26 24 25 26 28 24 23 21 22 29 25 27 28 24 19 17 23 29 25 8 13
40 48 50 52 52 51 48 51 53 51 47 42 37 33 31 30 29 28 26 27 28 27 25 24 25 25 26 24 22 21 23 32 26 26 27 28 23 20 27 24 28 8 15
44 53 53 51 55 49 48 49 50 48 42 39 34 30 29 28 26 24 24 25 25 24 24 24 24 23 22 22 22 19 22 31 27 27 20 20 21 18 20 21 15 18 18
44 45 49 51 49 47 46 46 44 43 37 34 30 27 26 24 21 22 22 23 22 22 24 23 21 20 19 19 20 20 18 25 29 26 19 22 9 17 21 18 19 19 20
44 41 50 47 44 40 41 42 39 37 34 30 27 23 20 19 18 20 19 19 19 21 22 21 20 19 17 17 16 15 20 23 30 29 30 21 4 12 21 20 21 23 22
41 42 46 42 38 38 39 37 35 34 32 29 23 20 17 16 16 16 16 16 17 19 19 19 19 17 17 15 16 15 17 24 25 28 19 11 4 10 20 23 20 19 18
40 40 40 38 38 38 37 36 35 34 31 25 20 19 16 14 15 14 14 15 16 16 17 19 19 17 17 16 17 16 17 18 24 21 18 8 7 14 17 20 19 17 19
40 34 38 38 37 35 35 35 34 31 26 21 20 16 13 14 14 13 13 13 15 15 15 18 19 19 19 19 20 20 15 18 12 14 13 11 9 13 18 17 19 17 16
42 33 39 40 39 37 37 34 30 27 24 21 16 14 12 14 14 20 13 14 14 15 15 15 16 20 22 21 18 19 21 19 7 9 15 11 12 11 16 18 16 15 15
42 30 30 36 39 39 36 30 27 25 23 17 14 12 12 14 13 19 18 21 13 14 16 14 13 14 24 29 27 20 17 11 8 4 18 14 8 8 12 15 16 15 13
35 33 32 27 26 24 30 26 25 23 18 14 13 11 11 13 12 13 18 18 17 18 22 20 18 18 12 15 21 17 19 8 9 11 7 19 10 9 9 10 13 14 13
38 40 34 33 33 25 24 21 20 17 14 11 7 5 6 10 3 15 14 11 21 18 12 19 16 11 12 11 23 10 20 17 4 21 9 9 10 7 7 7 8 11 13
43 47 25 46 23 31 36 11 9 5 5 4 6 8 4 7 6 21 9 9 14 12 13 4 21 9 11 9 17 22 19 21 29 19 16 11 18 6 5 4 5 9 12
44 47 36 48 30 32 35 12 17 18 7 14 18 6 16 5 2 4 13 14 7 11 14 14 4 15 20 22 22 18 20 11 23 14 11 24 15 6 2 1 8 8 10
36 36 54 43 36 41 28 18 26 22 17 14 17 16 6 9 6 20 13 8 14 7 19 14 8 17 15 18 21 22 15 14 8 19 11 17 16 9 5 9 7 10 11
43 39 42 41 40 50 43 31 30 28 13 24 13 22 18 12 11 10 10 7 21 9 15 21 18 18 13 11 16 19 26 11 12 17 16 20 17 12 11 9 12 10 13
47 45 43 38 38 39 47 35 38 20 23 15 17 18 20 21 19 22 16 9 11 22 16 23 7 13 13 27 17 12 23 25 6 13 23 19 20 20 19 13 11 11 11
46 49 44 36 39 32 35 33 31 22 25 20 17 31 30 25 25 27 16 10 10 19 22 8 12 7 18 20 18 16 14 17 14 16 8 6 12 15 14 14 8 12 11
49 51 50 43 43 44 33 33 26 30 27 24 37 22 19 23 18 19 13 8 14 13 20 9 12 12 21 16 10 18 6 12 8 9 6 3 6 4 11 10 9 15 9
51 52 50 49 44 47 36 31 31 28 31 32 22 27 25 25 22 20 14 15 9 9 19 18 11 14 12 17 15 14 8 11 9 3 7 7 3 8 9 7 6 17 9
53 56 56 54 52 43 45 38 38 39 32 32 31 31 33 34 22 24 23 14 18 9 15 5 12 12 5 14 7 21 17 9 11 7 11 1 14 2 16 16 8 5 9
60 60 60 60 57 60 47 44 34 22 30 26 15 26 23 16 15 19 10 10 8 8 8 11 17 6 4 8 15 6 9 17 7 15 9 3 4 10 9 3 16 9 5
66 65 66 63 64 60 52 43 42 28 36 20 31 15 17 26 18 21 22 21 17 9 15 5 6 10 2 7 18 8 13 6 12 11 8 11 3 11 2 13 12 1 6
69 69 67 62 63 62 57 49 42 49 32 26 24 26 28 25 13 18 18 21 14 17 8 7 10 3 4 7 11 8 10 9 4 10 17 8 5 6 1 2 15 15 9
69 73 73 66 58 64 59 60 48 41 34 33 27 35 28 24 21 18 22 21 21 24 18 21 21 8 7 8 2 2 5 5 8 3 6 5 9 11 2 4 9 14 15
76 75 78 76 69 61 62 65 55 47 46 36 32 32 33 33 25 35 31 30 32 32 26 18 12 7 18 17 15 9 2 6 2 7 13 13 9 11 11 10 13 5 15
Wind_Direction_850mb
126 126 130 135 134 136 134 132 130 130 129 120 113 106 100 96 92 91 84 87 85 78 73 67 63 60 60 64 72 78 78 69 66 76 71 77 70 88 110 96 94 91 104
131 133 134 135 135 137 134 133 130 131 129 124 116 109 101 94 95 87 87 86 80 74 67 61 60 57 58 61 70 73 77 77 70 74 68 62 56 91 119 118 123 123 110
132 133 138 138 138 137 136 133 132 131 132 125 121 112 102 95 91 87 83 78 74 65 59 55 57 54 54 59 64 70 80 95 78 62 69 69 50 83 122 110 110 109 103
126 135 140 137 139 137 137 134 136 135 132 125 122 117 102 90 87 81 75 70 67 56 49 48 53 53 52 50 60 62 80 115 98 74 55 126 4 96 107 100 104 106 106
132 143 141 140 142 142 140 137 140 137 134 130 129 115 102 93 87 79 74 68 61 47 40 39 43 55 53 53 58 77 90 120 109 106 99 127 351 105 113 114 112 119 109
138 151 145 142 142 142 140 144 146 141 139 136 123 116 113 99 88 79 67 62 50 34 37 37 36 44 56 52 64 76 92 104 136 112 106 150 48 105 129 123 121 122 118
140 153 148 146 143 141 140 142 144 146 144 136 128 127 112 97 84 69 51 49 33 31 36 38 44 44 53 67 65 86 90 96 105 122 135 111 90 124 125 131 135 131 130
136 149 154 150 147 144 146 149 147 145 145 142 140 134 118 93 72 46 40 37 19 20 36 50 51 60 59 59 65 66 80 84 61 137 174 64 79 124 125 141 140 140 140
142 146 151 153 154 155 151 146 145 150 150 149 150 141 114 85 60 43 38 24 24 35 28 44 53 70 63 49 48 59 66 88 30 270 125 72 58 115 134 135 147 144 142
138 148 150 152 157 156 152 146 153 155 156 158 157 137 102 84 49 27 31 12 18 26 35 43 52 77 76 64 63 53 50 102 35 85 129 46 49 102 128 144 146 155 151
140 152 153 149 159 154 163 164 164 170 175 171 156 125 103 49 32 3 1 355 20 44 47 48 72 74 44 35 34 50 72 20 15 54 91 29 32 73 125 139 162 168 171
160 159 161 162 155 175 169 168 179 173 170 167 112 123 117 349 55 324 344 348 23 355 342 38 25 18 33 349 323 338 28 347 354 257 203 8 14 55 105 127 159 183 189
170 166 168 165 154 152 190 198 131 82 153 63 191 261 354 280 232 276 235 267 25 338 339 341 339 8 342 13 354 8 21 349 348 356 137 57 17 354 70 170 175 185 198
168 175 178 169 175 176 185 186 170 208 201 216 246 260 207 245 165 269 298 342 9 310 358 314 291 355 343 339 346 332 336 343 343 320 5 341 312 4 4 231 222 206 206
169 182 171 181 187 181 179 188 201 204 187 209 242 285 304 271 263 277 271 277 292 288 322 336 353 324 333 326 340 333 325 306 25 291 348 349 354 343 297 321 273 229 217
180 180 186 194 207 195 189 188 210 184 207 203 221 261 272 231 250 211 263 273 293 342 319 320 306 318 333 335 340 339 339 335 307 342 324 326 315 308 303 297 283 276 245
186 187 195 195 215 212 200 207 199 199 218 209 228 253 268 273 252 269 260 246 329 282 297 316 360 1 347 342 328 327 342 327 340 292 287 261 299 306 290 290 298 281 263
190 193 193 195 207 216 204 214 215 198 212 227 227 225 242 250 250 269 269 294 280 294 306 306 328 318 342 298 294 294 287 288 289 289 319 264 245 297 273 290 309 319 271
194 196 196 199 204 217 220 208 215 209 225 232 237 240 270 283 269 264 282 282 271 290 300 278 289 332 290 295 314 330 247 321 317 352 322 304 117 11 289 273 320 331 294
197 201 203 201 200 218 221 213 211 213 225 221 232 269 246 247 242 270 251 269 295 270 269 273 255 306 7 322 284 276 291 261 238 129 19 37 243 175 307 93 298 286 261
200 202 207 203 203 204 202 216 213 213 227 237 235 236 243 255 246 253 248 249 261 263 289 19 284 293 282 287 316 327 218 275 135 100 139 258 74 252 277 235 276 302 228
201 205 207 208 207 210 210 213 216 221 230 247 271 229 245 252 227 270 229 251 266 258 294 227 311 50 30 300 335 246 258 191 160 178 218 249 226 67 315 282 272 274 282
201 205 209 211 207 213 206 211 211 219 216 234 230 223 235 262 264 218 239 210 224 186 225 254 323 343 284 338 350 358 7 46 194 215 151 195 288 192 5 327 0 6 168
203 205 212 217 212 215 197 203 211 217 207 232 218 243 236 224 203 227 218 213 196 166 229 286 284 240 116 82 336 359 359 13 344 126 186 311 50 123 185 184 338 8 18
205 203 209 216 220 216 202 199 205 210 212 214 225 220 209 226 228 213 189 205 204 189 220 245 258 222 149 174 47 234 331 27 356 7 350 224 200 228 241 109 237 309 325
205 204 203 213 218 221 214 206 202 213 212 214 214 229 234 240 224 193 220 195 211 194 226 238 231 209 196 205 195 181 236 297 351 309 313 335 358 281 227 266 268 247 260